| time (UTC) | temp C | wind direction | speed KPH | gust KPH | rain 1hr cm | rain 24hr cm | rain mn cm | humidity % | barometer mb |
| 20260508050042 | 2 | 0 | 0.0 | 0.0 | 0.00 | 0.00 | 0.00 | 83 | 1012.5 |
| 20260508044534 | 2 | 0 | 0.0 | 0.0 | 0.00 | 0.00 | 0.00 | 81 | 1012.4 |
| 20260508043039 | 2 | 0 | 0.0 | 0.0 | 0.00 | 0.00 | 0.00 | 81 | 1012.2 |
| 20260508041537 | 2 | 0 | 0.0 | 0.0 | 0.00 | 0.00 | 0.00 | 80 | 1012.1 |
| 20260508040045 | 2 | 0 | 0.0 | 0.0 | 0.00 | 0.00 | 0.00 | 80 | 1011.9 |
| 20260508034535 | 2 | 0 | 0.0 | 1.6 | 0.00 | 0.00 | 0.00 | 78 | 1011.8 |
| 20260508033039 | 3 | 0 | 0.0 | 0.0 | 0.00 | 0.00 | 0.00 | 76 | 1011.6 |
| 20260508031610 | 3 | 0 | 0.0 | 0.0 | 0.00 | 0.00 | 0.00 | 75 | 1011.7 |
| 20260508030037 | 4 | 0 | 0.0 | 1.6 | 0.00 | 0.00 | 0.00 | 73 | 1011.6 |
| 20260508024546 | 4 | 0 | 0.0 | 1.6 | 0.00 | 0.00 | 0.00 | 72 | 1011.5 |
| 20260508023035 | 5 | 134 | 0.0 | 1.6 | 0.00 | 0.00 | 0.00 | 71 | 1011.2 |
| 20260508021540 | 5 | 135 | 0.0 | 3.2 | 0.00 | 0.00 | 0.00 | 69 | 1011.0 |
| 20260508020031 | 5 | 138 | 0.0 | 6.4 | 0.00 | 0.00 | 0.00 | 67 | 1011.1 |
| 20260508014542 | 5 | 0 | 0.0 | 3.2 | 0.00 | 0.00 | 0.00 | 67 | 1010.9 |
| 20260508013035 | 5 | 104 | 0.0 | 6.4 | 0.00 | 0.00 | 0.00 | 66 | 1010.7 |
| 20260508011536 | 5 | 104 | 3.2 | 8.0 | 0.00 | 0.00 | 0.00 | 64 | 1010.7 |
| 20260508010036 | 6 | 74 | 3.2 | 11.3 | 0.00 | 0.00 | 0.00 | 62 | 1010.6 |
| 20260508004538 | 6 | 0 | 1.6 | 14.5 | 0.00 | 0.00 | 0.00 | 61 | 1010.5 |
| 20260508003036 | 6 | 125 | 4.8 | 12.9 | 0.00 | 0.00 | 0.00 | 63 | 1010.3 |
| 20260508001536 | 7 | 99 | 4.8 | 12.9 | 0.00 | 0.00 | 0.00 | 62 | 1010.3 |
| 20260508000037 | 7 | 60 | 6.4 | 14.5 | 0.00 | 0.00 | 0.00 | 62 | 1010.2 |
| 20260507234538 | 7 | 101 | 4.8 | 16.1 | 0.00 | 0.00 | 0.00 | 65 | 1010.2 |
| 20260507233041 | 8 | 75 | 4.8 | 12.9 | 0.00 | 0.00 | 0.00 | 63 | 1010.2 |
| 20260507231538 | 8 | 68 | 4.8 | 19.3 | 0.00 | 0.00 | 0.00 | 62 | 1010.1 |
| 20260507230045 | 9 | 89 | 6.4 | 11.3 | 0.00 | 0.00 | 0.00 | 62 | 1010.3 |
| 20260507224543 | 9 | 86 | 8.0 | 16.1 | 0.00 | 0.00 | 0.00 | 61 | 1010.2 |
| 20260507223038 | 9 | 80 | 6.4 | 11.3 | 0.00 | 0.00 | 0.00 | 60 | 1010.4 |
| 20260507221540 | 9 | 53 | 6.4 | 12.9 | 0.00 | 0.00 | 0.00 | 56 | 1010.3 |
| 20260507220037 | 9 | 113 | 4.8 | 17.7 | 0.00 | 0.00 | 0.00 | 53 | 1010.3 |
| 20260507214549 | 9 | 70 | 6.4 | 19.3 | 0.00 | 0.00 | 0.00 | 51 | 1010.2 |
| 20260507213044 | 10 | 122 | 6.4 | 22.5 | 0.00 | 0.00 | 0.00 | 48 | 1010.3 |
| 20260507211538 | 10 | 169 | 6.4 | 25.7 | 0.00 | 0.00 | 0.00 | 52 | 1010.2 |
| 20260507210038 | 9 | 180 | 9.7 | 20.9 | 0.00 | 0.00 | 0.00 | 53 | 1010.1 |
| 20260507204538 | 9 | 149 | 8.0 | 22.5 | 0.00 | 0.00 | 0.00 | 53 | 1010.4 |
| 20260507203043 | 8 | 103 | 17.7 | 27.4 | 0.00 | 0.00 | 0.00 | 53 | 1010.7 |
| 20260507201549 | 9 | 150 | 8.0 | 16.1 | 0.00 | 0.00 | 0.00 | 58 | 1010.9 |
| 20260507200055 | 8 | 105 | 4.8 | 11.3 | 0.00 | 0.00 | 0.00 | 64 | 1011.3 |
| 20260507194535 | 8 | 93 | 0.0 | 11.3 | 0.00 | 0.00 | 0.00 | 67 | 1011.6 |
| 20260507193039 | 8 | 66 | 8.0 | 17.7 | 0.00 | 0.00 | 0.00 | 56 | 1011.6 |
| 20260507191535 | 8 | 83 | 8.0 | 22.5 | 0.00 | 0.00 | 0.00 | 53 | 1011.4 |
| 20260507190034 | 8 | 46 | 11.3 | 19.3 | 0.00 | 0.00 | 0.00 | 52 | 1011.4 |
| 20260507184541 | 9 | 109 | 9.7 | 19.3 | 0.00 | 0.00 | 0.00 | 50 | 1011.8 |
| 20260507183038 | 9 | 155 | 8.0 | 24.1 | 0.00 | 0.00 | 0.00 | 50 | 1011.7 |
| 20260507181538 | 9 | 113 | 9.7 | 17.7 | 0.00 | 0.00 | 0.00 | 50 | 1011.9 |
| 20260507180039 | 10 | 128 | 9.7 | 20.9 | 0.00 | 0.00 | 0.00 | 49 | 1012.2 |
| 20260507174541 | 11 | 129 | 6.4 | 19.3 | 0.00 | 0.00 | 0.00 | 47 | 1012.2 |
| 20260507173039 | 12 | 255 | 8.0 | 19.3 | 0.00 | 0.00 | 0.00 | 41 | 1012.2 |
| 20260507171538 | 11 | 251 | 9.7 | 24.1 | 0.00 | 0.00 | 0.00 | 40 | 1012.6 |
| 20260507170038 | 11 | 246 | 4.8 | 11.3 | 0.00 | 0.00 | 0.00 | 41 | 1012.9 |
| 20260507164540 | 11 | 207 | 4.8 | 17.7 | 0.00 | 0.00 | 0.00 | 43 | 1013.1 |
| 20260507163041 | 10 | 293 | 4.8 | 12.9 | 0.00 | 0.00 | 0.00 | 46 | 1013.2 |
| 20260507161541 | 10 | 283 | 1.6 | 8.0 | 0.00 | 0.00 | 0.00 | 45 | 1013.4 |
| 20260507160041 | 10 | 274 | 4.8 | 9.7 | 0.00 | 0.00 | 0.00 | 44 | 1013.8 |
| 20260507154542 | 8 | 246 | 3.2 | 8.0 | 0.00 | 0.00 | 0.00 | 48 | 1013.9 |
| 20260507153038 | 8 | 228 | 3.2 | 11.3 | 0.00 | 0.00 | 0.00 | 50 | 1014.1 |
| 20260507151536 | 7 | 269 | 4.8 | 14.5 | 0.00 | 0.00 | 0.00 | 51 | 1014.4 |
| 20260507150036 | 7 | 238 | 8.0 | 14.5 | 0.00 | 0.00 | 0.00 | 51 | 1014.5 |
| 20260507144539 | 6 | 224 | 4.8 | 9.7 | 0.00 | 0.00 | 0.00 | 56 | 1014.6 |
| 20260507143039 | 5 | 270 | 4.8 | 11.3 | 0.00 | 0.00 | 0.00 | 60 | 1014.7 |
| 20260507141539 | 5 | 353 | 1.6 | 11.3 | 0.00 | 0.00 | 0.00 | 65 | 1015.2 |
| 20260507140036 | 5 | 316 | 3.2 | 14.5 | 0.00 | 0.00 | 0.00 | 67 | 1015.3 |
| 20260507134542 | 4 | 311 | 4.8 | 11.3 | 0.00 | 0.00 | 0.00 | 69 | 1015.5 |
| 20260507133056 | 4 | 327 | 8.0 | 16.1 | 0.00 | 0.00 | 0.00 | 66 | 1015.4 |
| 20260507131545 | 5 | 259 | 11.3 | 24.1 | 0.00 | 0.00 | 0.00 | 59 | 1015.6 |
| 20260507130054 | 5 | 278 | 4.8 | 11.3 | 0.00 | 0.00 | 0.00 | 56 | 1015.4 |
| 20260507124537 | 5 | 263 | 6.4 | 14.5 | 0.00 | 0.00 | 0.00 | 56 | 1015.2 |
| 20260507123036 | 4 | 245 | 6.4 | 14.5 | 0.00 | 0.00 | 0.00 | 58 | 1015.2 |
| 20260507121540 | 3 | 243 | 3.2 | 8.0 | 0.00 | 0.00 | 0.00 | 63 | 1015.2 |
| 20260507120052 | 2 | 244 | 3.2 | 9.7 | 0.00 | 0.00 | 0.00 | 65 | 1015.1 |
| 20260507114612 | 2 | 250 | 4.8 | 6.4 | 0.00 | 0.00 | 0.00 | 66 | 1014.9 |
| 20260507113038 | 1 | 230 | 1.6 | 8.0 | 0.00 | 0.00 | 0.00 | 69 | 1014.8 |
| 20260507111537 | 1 | 233 | 1.6 | 4.8 | 0.00 | 0.00 | 0.00 | 71 | 1014.6 |
| 20260507110036 | 0 | 231 | 0.0 | 3.2 | 0.00 | 0.00 | 0.00 | 72 | 1014.2 |
| 20260507104535 | 0 | 240 | 0.0 | 4.8 | 0.00 | 0.00 | 0.00 | 72 | 1014.5 |
| 20260507103040 | 0 | 239 | 1.6 | 4.8 | 0.00 | 0.00 | 0.00 | 72 | 1014.6 |
| 20260507101543 | 0 | 243 | 3.2 | 4.8 | 0.00 | 0.00 | 0.00 | 72 | 1014.6 |
| 20260507100039 | 0 | 220 | 1.6 | 4.8 | 0.00 | 0.00 | 0.00 | 72 | 1014.6 |
| 20260507094536 | 0 | 255 | 0.0 | 4.8 | 0.00 | 0.00 | 0.00 | 72 | 1014.3 |
| 20260507093035 | 0 | 0 | 0.0 | 1.6 | 0.00 | 0.00 | 0.00 | 72 | 1014.2 |
| 20260507091546 | 1 | 231 | 0.0 | 3.2 | 0.00 | 0.00 | 0.00 | 70 | 1014.3 |
| 20260507090041 | 1 | 0 | 1.6 | 4.8 | 0.00 | 0.00 | 0.00 | 69 | 1014.3 |
| 20260507084548 | 1 | 253 | 3.2 | 6.4 | 0.00 | 0.00 | 0.00 | 69 | 1014.6 |
| 20260507083036 | 1 | 260 | 3.2 | 6.4 | 0.00 | 0.00 | 0.00 | 69 | 1014.5 |
| 20260507081540 | 1 | 233 | 0.0 | 1.6 | 0.00 | 0.00 | 0.00 | 69 | 1014.2 |
| 20260507080044 | 1 | 235 | 1.6 | 3.2 | 0.00 | 0.00 | 0.00 | 70 | 1014.3 |
| 20260507074534 | 1 | 0 | 0.0 | 3.2 | 0.00 | 0.00 | 0.00 | 69 | 1014.5 |
| 20260507073036 | 1 | 0 | 0.0 | 3.2 | 0.00 | 0.00 | 0.00 | 69 | 1014.5 |
| 20260507071535 | 1 | 236 | 0.0 | 0.0 | 0.00 | 0.00 | 0.00 | 70 | 1014.6 |
| 20260507070035 | 2 | 0 | 0.0 | 1.6 | 0.00 | 0.00 | 0.00 | 67 | 1014.8 |
| 20260507064535 | 2 | 236 | 0.0 | 3.2 | 0.00 | 0.00 | 0.00 | 67 | 1015.2 |
| 20260507063038 | 2 | 221 | 0.0 | 3.2 | 0.00 | 0.00 | 0.00 | 66 | 1015.2 |
| 20260507061538 | 3 | 246 | 0.0 | 1.6 | 0.00 | 0.00 | 0.00 | 64 | 1015.1 |
| 20260507060036 | 3 | 262 | 0.0 | 3.2 | 0.00 | 0.00 | 0.00 | 61 | 1015.1 |
| 20260507054539 | 3 | 305 | 1.6 | 8.0 | 0.00 | 0.00 | 0.00 | 60 | 1015.2 |
| 20260507053033 | 3 | 0 | 0.0 | 3.2 | 0.00 | 0.00 | 0.00 | 60 | 1015.2 |
| 20260507051534 | 3 | 0 | 0.0 | 1.6 | 0.00 | 0.00 | 0.00 | 60 | 1015.2 |